Year,Month,Day,Hour,Minute,Value (Times are PST for temperature in C)
2014,09,21,00,00,14.50
2014,09,21,00,01,14.50
2014,09,21,00,02,14.60
2014,09,21,00,03,14.60
2014,09,21,00,04,14.60
2014,09,21,00,05,14.60
2014,09,21,00,06,14.60
2014,09,21,00,07,14.50
2014,09,21,00,08,14.50
2014,09,21,00,09,14.50
2014,09,21,00,10,14.50
2014,09,21,00,11,14.50
2014,09,21,00,12,14.50
2014,09,21,00,13,14.40
2014,09,21,00,14,14.40
2014,09,21,00,15,14.40
2014,09,21,00,16,14.40
2014,09,21,00,17,14.30
2014,09,21,00,18,14.30
2014,09,21,00,19,14.30
2014,09,21,00,20,14.30
2014,09,21,00,21,14.30
2014,09,21,00,22,14.30
2014,09,21,00,23,14.30
2014,09,21,00,24,14.30
2014,09,21,00,25,14.30
2014,09,21,00,26,14.20
2014,09,21,00,27,14.20
2014,09,21,00,28,14.10
2014,09,21,00,29,14.10
2014,09,21,00,30,14.10
2014,09,21,00,31,14.10
2014,09,21,00,32,14.10
2014,09,21,00,33,14.00
2014,09,21,00,34,14.00
2014,09,21,00,35,14.00
2014,09,21,00,36,13.90
2014,09,21,00,37,13.90
2014,09,21,00,38,13.90
2014,09,21,00,39,13.90
2014,09,21,00,40,13.90
2014,09,21,00,41,13.90
2014,09,21,00,42,13.90
2014,09,21,00,43,13.90
2014,09,21,00,44,13.90
2014,09,21,00,45,13.80
2014,09,21,00,46,13.80
2014,09,21,00,47,13.80
2014,09,21,00,48,13.80
2014,09,21,00,49,13.80
2014,09,21,00,50,13.80
2014,09,21,00,51,13.80
2014,09,21,00,52,13.80
2014,09,21,00,53,13.80
2014,09,21,00,54,13.80
2014,09,21,00,55,13.80
2014,09,21,00,56,13.80
2014,09,21,00,57,13.80
2014,09,21,00,58,13.90
2014,09,21,00,59,13.90
2014,09,21,01,00,13.90
2014,09,21,01,01,14.00
2014,09,21,01,02,14.00
2014,09,21,01,03,14.10
2014,09,21,01,04,14.10
2014,09,21,01,05,14.10
2014,09,21,01,06,14.10
2014,09,21,01,07,14.00
2014,09,21,01,08,14.00
2014,09,21,01,09,13.90
2014,09,21,01,10,13.90
2014,09,21,01,11,13.90
2014,09,21,01,12,13.80
2014,09,21,01,13,13.80
2014,09,21,01,14,13.80
2014,09,21,01,15,13.80
2014,09,21,01,16,13.70
2014,09,21,01,17,13.70
2014,09,21,01,18,13.70
2014,09,21,01,19,13.70
2014,09,21,01,20,13.80
2014,09,21,01,21,13.80
2014,09,21,01,22,13.90
2014,09,21,01,23,13.90
2014,09,21,01,24,13.90
2014,09,21,01,25,13.90
2014,09,21,01,26,13.90
2014,09,21,01,27,14.00
2014,09,21,01,28,14.00
2014,09,21,01,29,14.00
2014,09,21,01,30,14.10
2014,09,21,01,31,14.10
2014,09,21,01,32,14.00
2014,09,21,01,33,14.00
2014,09,21,01,34,14.00
2014,09,21,01,35,13.90
2014,09,21,01,36,13.90
2014,09,21,01,37,13.90
2014,09,21,01,38,13.90
2014,09,21,01,39,13.80
2014,09,21,01,40,13.80
2014,09,21,01,41,13.80
2014,09,21,01,42,13.80
2014,09,21,01,43,13.80
2014,09,21,01,44,13.80
2014,09,21,01,45,13.70
2014,09,21,01,46,13.70
2014,09,21,01,47,13.70
2014,09,21,01,48,13.70
2014,09,21,01,49,13.70
2014,09,21,01,50,13.70
2014,09,21,01,51,13.80
2014,09,21,01,52,13.70
2014,09,21,01,53,13.70
2014,09,21,01,54,13.70
2014,09,21,01,55,13.70
2014,09,21,01,56,13.70
2014,09,21,01,57,13.70
2014,09,21,01,58,13.70
2014,09,21,01,59,13.70
2014,09,21,02,00,13.70
2014,09,21,02,01,13.70
2014,09,21,02,02,13.60
2014,09,21,02,03,13.60
2014,09,21,02,04,13.60
2014,09,21,02,05,13.50
2014,09,21,02,06,13.50
2014,09,21,02,07,13.50
2014,09,21,02,08,13.40
2014,09,21,02,09,13.40
2014,09,21,02,10,13.40
2014,09,21,02,11,13.40
2014,09,21,02,12,13.40
2014,09,21,02,13,13.40
2014,09,21,02,14,13.40
2014,09,21,02,15,13.50
2014,09,21,02,16,13.50
2014,09,21,02,17,13.50
2014,09,21,02,18,13.40
2014,09,21,02,19,13.40
2014,09,21,02,20,13.40
2014,09,21,02,21,13.40
2014,09,21,02,22,13.40
2014,09,21,02,23,13.30
2014,09,21,02,24,13.30
2014,09,21,02,25,13.20
2014,09,21,02,26,13.20
2014,09,21,02,27,13.10
2014,09,21,02,28,13.10
2014,09,21,02,29,13.10
2014,09,21,02,30,13.10
2014,09,21,02,31,13.10
2014,09,21,02,32,13.10
2014,09,21,02,33,13.10
2014,09,21,02,34,13.10
2014,09,21,02,35,13.10
2014,09,21,02,36,13.20
2014,09,21,02,37,13.20
2014,09,21,02,38,13.20
2014,09,21,02,39,13.20
2014,09,21,02,40,13.20
2014,09,21,02,41,13.30
2014,09,21,02,42,13.20
2014,09,21,02,43,13.20
2014,09,21,02,44,13.10
2014,09,21,02,45,13.10
2014,09,21,02,46,13.10
2014,09,21,02,47,13.10
2014,09,21,02,48,13.00
2014,09,21,02,49,13.00
2014,09,21,02,50,13.00
2014,09,21,02,51,13.00
2014,09,21,02,52,13.10
2014,09,21,02,53,13.10
2014,09,21,02,54,13.10
2014,09,21,02,55,13.10
2014,09,21,02,56,13.10
2014,09,21,02,57,13.10
2014,09,21,02,58,13.10
2014,09,21,02,59,13.10
2014,09,21,03,00,13.10
2014,09,21,03,01,13.10
2014,09,21,03,02,13.10
2014,09,21,03,03,13.20
2014,09,21,03,04,13.20
2014,09,21,03,05,13.20
2014,09,21,03,06,13.20
2014,09,21,03,07,13.10
2014,09,21,03,08,13.10
2014,09,21,03,09,13.10
2014,09,21,03,10,13.10
2014,09,21,03,11,13.10
2014,09,21,03,12,13.10
2014,09,21,03,13,13.10
2014,09,21,03,14,13.10
2014,09,21,03,15,13.10
2014,09,21,03,16,13.10
2014,09,21,03,17,13.10
2014,09,21,03,18,13.10
2014,09,21,03,19,13.10
2014,09,21,03,20,13.10
2014,09,21,03,21,13.10
2014,09,21,03,22,13.10
2014,09,21,03,23,13.10
2014,09,21,03,24,13.10
2014,09,21,03,25,13.10
2014,09,21,03,26,13.10
2014,09,21,03,27,13.10
2014,09,21,03,28,13.10
2014,09,21,03,29,13.10
2014,09,21,03,30,13.10
2014,09,21,03,31,13.10
2014,09,21,03,32,13.10
2014,09,21,03,33,13.10
2014,09,21,03,34,13.10
2014,09,21,03,35,13.10
2014,09,21,03,36,13.10
2014,09,21,03,37,13.10
2014,09,21,03,38,13.10
2014,09,21,03,39,13.10
2014,09,21,03,40,13.00
2014,09,21,03,41,13.00
2014,09,21,03,42,13.00
2014,09,21,03,43,13.00
2014,09,21,03,44,13.00
2014,09,21,03,45,13.00
2014,09,21,03,46,13.00
2014,09,21,03,47,13.00
2014,09,21,03,48,13.00
2014,09,21,03,49,13.00
2014,09,21,03,50,13.00
2014,09,21,03,51,12.90
2014,09,21,03,52,12.90
2014,09,21,03,53,12.90
2014,09,21,03,54,12.90
2014,09,21,03,55,12.90
2014,09,21,03,56,12.90
2014,09,21,03,57,12.90
2014,09,21,03,58,12.90
2014,09,21,03,59,12.90
2014,09,21,04,00,13.00
2014,09,21,04,01,13.00
2014,09,21,04,02,13.00
2014,09,21,04,03,13.00
2014,09,21,04,04,13.00
2014,09,21,04,05,13.00
2014,09,21,04,06,13.00
2014,09,21,04,07,13.00
2014,09,21,04,08,13.00
2014,09,21,04,09,13.00
2014,09,21,04,10,13.00
2014,09,21,04,11,13.00
2014,09,21,04,12,13.00
2014,09,21,04,13,13.00
2014,09,21,04,14,13.00
2014,09,21,04,15,13.00
2014,09,21,04,16,12.90
2014,09,21,04,17,12.90
2014,09,21,04,18,12.90
2014,09,21,04,19,12.90
2014,09,21,04,20,12.90
2014,09,21,04,21,12.90
2014,09,21,04,22,12.90
2014,09,21,04,23,12.90
2014,09,21,04,24,12.90
2014,09,21,04,25,12.90
2014,09,21,04,26,12.90
2014,09,21,04,27,12.90
2014,09,21,04,28,12.90
2014,09,21,04,29,12.90
2014,09,21,04,30,12.90
2014,09,21,04,31,12.90
2014,09,21,04,32,12.90
2014,09,21,04,33,13.00
2014,09,21,04,34,13.00
2014,09,21,04,35,13.10
2014,09,21,04,36,13.10
2014,09,21,04,37,13.10
2014,09,21,04,38,13.10
2014,09,21,04,39,13.10
2014,09,21,04,40,13.10
2014,09,21,04,41,13.10
2014,09,21,04,42,13.10
2014,09,21,04,43,13.10
2014,09,21,04,44,13.00
2014,09,21,04,45,13.00
2014,09,21,04,46,13.00
2014,09,21,04,47,13.00
2014,09,21,04,48,13.00
2014,09,21,04,49,13.10
2014,09,21,04,50,13.10
2014,09,21,04,51,13.10
2014,09,21,04,52,13.10
2014,09,21,04,53,13.10
2014,09,21,04,54,13.10
2014,09,21,04,55,13.10
2014,09,21,04,56,13.10
2014,09,21,04,57,13.10
2014,09,21,04,58,13.00
2014,09,21,04,59,13.00
2014,09,21,05,00,13.00
2014,09,21,05,01,13.00
2014,09,21,05,02,12.90
2014,09,21,05,03,13.00
2014,09,21,05,04,13.00
2014,09,21,05,05,12.90
2014,09,21,05,06,13.00
2014,09,21,05,07,13.00
2014,09,21,05,08,13.00
2014,09,21,05,09,13.00
2014,09,21,05,10,13.00
2014,09,21,05,11,13.00
2014,09,21,05,12,13.00
2014,09,21,05,13,13.00
2014,09,21,05,14,13.00
2014,09,21,05,15,12.90
2014,09,21,05,16,12.90
2014,09,21,05,17,12.90
2014,09,21,05,18,12.80
2014,09,21,05,19,12.80
2014,09,21,05,20,12.80
2014,09,21,05,21,12.70
2014,09,21,05,22,12.70
2014,09,21,05,23,12.70
2014,09,21,05,24,12.70
2014,09,21,05,25,12.70
2014,09,21,05,26,12.60
2014,09,21,05,27,12.60
2014,09,21,05,28,12.60
2014,09,21,05,29,12.60
2014,09,21,05,30,12.60
2014,09,21,05,31,12.60
2014,09,21,05,32,12.50
2014,09,21,05,33,12.50
2014,09,21,05,34,12.40
2014,09,21,05,35,12.40
2014,09,21,05,36,12.40
2014,09,21,05,37,12.40
2014,09,21,05,38,12.50
2014,09,21,05,39,12.60
2014,09,21,05,40,12.70
2014,09,21,05,41,12.80
2014,09,21,05,42,12.90
2014,09,21,05,43,12.90
2014,09,21,05,44,12.90
2014,09,21,05,45,12.90
2014,09,21,05,46,12.90
2014,09,21,05,47,12.90
2014,09,21,05,48,12.90
2014,09,21,05,49,12.90
2014,09,21,05,50,12.90
2014,09,21,05,51,12.90
2014,09,21,05,52,12.90
2014,09,21,05,53,12.80
2014,09,21,05,54,12.80
2014,09,21,05,55,12.70
2014,09,21,05,56,12.70
2014,09,21,05,57,12.60
2014,09,21,05,58,12.60
2014,09,21,05,59,12.70
2014,09,21,06,00,12.80
2014,09,21,06,01,12.80
2014,09,21,06,02,12.90
2014,09,21,06,03,13.00
2014,09,21,06,04,13.00
2014,09,21,06,05,13.00
2014,09,21,06,06,12.90
2014,09,21,06,07,12.90
2014,09,21,06,08,12.90
2014,09,21,06,09,12.90
2014,09,21,06,10,12.90
2014,09,21,06,11,12.90
2014,09,21,06,12,12.90
2014,09,21,06,13,12.80
2014,09,21,06,14,12.80
2014,09,21,06,15,12.70
2014,09,21,06,16,12.70
2014,09,21,06,17,12.70
2014,09,21,06,18,12.70
2014,09,21,06,19,12.80
2014,09,21,06,20,12.80
2014,09,21,06,21,12.80
2014,09,21,06,22,12.80
2014,09,21,06,23,12.80
2014,09,21,06,24,12.80
2014,09,21,06,25,12.80
2014,09,21,06,26,12.80
2014,09,21,06,27,12.80
2014,09,21,06,28,12.80
2014,09,21,06,29,12.80
2014,09,21,06,30,12.80
2014,09,21,06,31,12.80
2014,09,21,06,32,12.90
2014,09,21,06,33,12.90
2014,09,21,06,34,12.90
2014,09,21,06,35,12.90
2014,09,21,06,36,12.90
2014,09,21,06,37,13.00
2014,09,21,06,38,13.00
2014,09,21,06,39,12.90
2014,09,21,06,40,12.90
2014,09,21,06,41,12.90
2014,09,21,06,42,12.90
2014,09,21,06,43,12.90
2014,09,21,06,44,12.90
2014,09,21,06,45,12.80
2014,09,21,06,46,12.80
2014,09,21,06,47,12.80
2014,09,21,06,48,12.80
2014,09,21,06,49,12.80
2014,09,21,06,50,12.80
2014,09,21,06,51,12.80
2014,09,21,06,52,12.70
2014,09,21,06,53,12.70
2014,09,21,06,54,12.70
2014,09,21,06,55,12.70
2014,09,21,06,56,12.70
2014,09,21,06,57,12.70
2014,09,21,06,58,12.80
2014,09,21,06,59,12.80
2014,09,21,07,00,12.80
2014,09,21,07,01,12.80
2014,09,21,07,02,12.70
2014,09,21,07,03,12.70
2014,09,21,07,04,12.70
2014,09,21,07,05,12.80
2014,09,21,07,06,12.80
2014,09,21,07,07,12.80
2014,09,21,07,08,12.80
2014,09,21,07,09,12.80
2014,09,21,07,10,12.80
2014,09,21,07,11,12.70
2014,09,21,07,12,12.70
2014,09,21,07,13,12.70
2014,09,21,07,14,12.80
2014,09,21,07,15,12.80
2014,09,21,07,16,12.70
2014,09,21,07,17,12.70
2014,09,21,07,18,12.70
2014,09,21,07,19,12.70
2014,09,21,07,20,12.70
2014,09,21,07,21,12.70
2014,09,21,07,22,12.70
2014,09,21,07,23,12.70
2014,09,21,07,24,12.70
2014,09,21,07,25,12.70
2014,09,21,07,26,12.70
2014,09,21,07,27,12.70
2014,09,21,07,28,12.70
2014,09,21,07,29,12.70
2014,09,21,07,30,12.70
2014,09,21,07,31,12.70
2014,09,21,07,32,12.60
2014,09,21,07,33,12.70
2014,09,21,07,34,12.70
2014,09,21,07,35,12.70
2014,09,21,07,36,12.80
2014,09,21,07,37,12.80
2014,09,21,07,38,12.80
2014,09,21,07,39,12.80
2014,09,21,07,40,12.80
2014,09,21,07,41,12.90
2014,09,21,07,42,12.90
2014,09,21,07,43,12.90
2014,09,21,07,44,12.90
2014,09,21,07,45,12.90
2014,09,21,07,46,12.90
2014,09,21,07,47,12.90
2014,09,21,07,48,12.90
2014,09,21,07,49,12.90
2014,09,21,07,50,12.90
2014,09,21,07,51,12.90
2014,09,21,07,52,12.90
2014,09,21,07,53,13.00
2014,09,21,07,54,13.00
2014,09,21,07,55,13.00
2014,09,21,07,56,13.10
2014,09,21,07,57,13.10
2014,09,21,07,58,13.20
2014,09,21,07,59,13.20
2014,09,21,08,00,13.30
2014,09,21,08,01,13.30
2014,09,21,08,02,13.30
2014,09,21,08,03,13.40
2014,09,21,08,04,13.30
2014,09,21,08,05,13.30
2014,09,21,08,06,13.40
2014,09,21,08,07,13.40
2014,09,21,08,08,13.40
2014,09,21,08,09,13.40
2014,09,21,08,10,13.40
2014,09,21,08,11,13.40
2014,09,21,08,12,13.50
2014,09,21,08,13,13.50
2014,09,21,08,14,13.50
2014,09,21,08,15,13.60
2014,09,21,08,16,13.60
2014,09,21,08,17,13.60
2014,09,21,08,18,13.70
2014,09,21,08,19,13.70
2014,09,21,08,20,13.70
2014,09,21,08,21,13.80
2014,09,21,08,22,13.80
2014,09,21,08,23,13.80
2014,09,21,08,24,13.90
2014,09,21,08,25,13.90
2014,09,21,08,26,13.90
2014,09,21,08,27,13.90
2014,09,21,08,28,14.00
2014,09,21,08,29,14.00
2014,09,21,08,30,14.10
2014,09,21,08,31,14.10
2014,09,21,08,32,14.20
2014,09,21,08,33,14.20
2014,09,21,08,34,14.20
2014,09,21,08,35,14.30
2014,09,21,08,36,14.30
2014,09,21,08,37,14.30
2014,09,21,08,38,14.30
2014,09,21,08,39,14.30
2014,09,21,08,40,14.40
2014,09,21,08,41,14.40
2014,09,21,08,42,14.50
2014,09,21,08,43,14.50
2014,09,21,08,44,14.60
2014,09,21,08,45,14.60
2014,09,21,08,46,14.70
2014,09,21,08,47,14.70
2014,09,21,08,48,14.80
2014,09,21,08,49,14.90
2014,09,21,08,50,15.00
2014,09,21,08,51,15.00
2014,09,21,08,52,15.00
2014,09,21,08,53,15.00
2014,09,21,08,54,15.00
2014,09,21,08,55,15.00
2014,09,21,08,56,15.10
2014,09,21,08,57,15.20
2014,09,21,08,58,15.30
2014,09,21,08,59,15.30
2014,09,21,09,00,15.40
2014,09,21,09,01,15.40
2014,09,21,09,02,15.40
2014,09,21,09,03,15.50
2014,09,21,09,04,15.70
2014,09,21,09,05,15.80
2014,09,21,09,06,15.90
2014,09,21,09,07,15.90
2014,09,21,09,08,16.00
2014,09,21,09,09,16.10
2014,09,21,09,10,16.20
2014,09,21,09,11,16.30
2014,09,21,09,12,16.40
2014,09,21,09,13,16.40
2014,09,21,09,14,16.50
2014,09,21,09,15,16.60
2014,09,21,09,16,16.70
2014,09,21,09,17,16.80
2014,09,21,09,18,16.80
2014,09,21,09,19,16.90
2014,09,21,09,20,17.00
2014,09,21,09,21,17.00
2014,09,21,09,22,17.10
2014,09,21,09,23,17.20
2014,09,21,09,24,17.30
2014,09,21,09,25,17.30
2014,09,21,09,26,17.40
2014,09,21,09,27,17.50
2014,09,21,09,28,17.60
2014,09,21,09,29,17.70
2014,09,21,09,30,17.80
2014,09,21,09,31,17.90
2014,09,21,09,32,18.00
2014,09,21,09,33,18.10
2014,09,21,09,34,18.20
2014,09,21,09,35,18.30
2014,09,21,09,36,18.40
2014,09,21,09,37,18.50
2014,09,21,09,38,18.60
2014,09,21,09,39,18.70
2014,09,21,09,40,18.80
2014,09,21,09,41,18.90
2014,09,21,09,42,19.10
2014,09,21,09,43,19.20
2014,09,21,09,44,19.40
2014,09,21,09,45,19.50
2014,09,21,09,46,19.70
2014,09,21,09,47,19.80
2014,09,21,09,48,19.90
2014,09,21,09,49,20.00
2014,09,21,09,50,20.20
2014,09,21,09,51,20.30
2014,09,21,09,52,20.40
2014,09,21,09,53,20.40
2014,09,21,09,54,20.50
2014,09,21,09,55,20.60
2014,09,21,09,56,20.60
2014,09,21,09,57,20.70
2014,09,21,09,58,20.70
2014,09,21,09,59,20.70
2014,09,21,10,00,20.80
2014,09,21,10,01,20.80
2014,09,21,10,02,20.80
2014,09,21,10,03,20.80
2014,09,21,10,04,20.90
2014,09,21,10,05,20.90
2014,09,21,10,06,21.00
2014,09,21,10,07,21.00
2014,09,21,10,08,21.10
2014,09,21,10,09,21.10
2014,09,21,10,10,21.10
2014,09,21,10,11,21.20
2014,09,21,10,12,21.20
2014,09,21,10,13,21.30
2014,09,21,10,14,21.30
2014,09,21,10,15,21.30
2014,09,21,10,16,21.40
2014,09,21,10,17,21.40
2014,09,21,10,18,21.50
2014,09,21,10,19,21.60
2014,09,21,10,20,21.60
2014,09,21,10,21,21.70
2014,09,21,10,22,21.80
2014,09,21,10,23,21.90
2014,09,21,10,24,22.00
2014,09,21,10,25,22.00
2014,09,21,10,26,22.10
2014,09,21,10,27,22.20
2014,09,21,10,28,22.20
2014,09,21,10,29,22.30
2014,09,21,10,30,22.40
2014,09,21,10,31,22.40
2014,09,21,10,32,22.50
2014,09,21,10,33,22.60
2014,09,21,10,34,22.60
2014,09,21,10,35,22.60
2014,09,21,10,36,22.70
2014,09,21,10,37,22.70
2014,09,21,10,38,22.70
2014,09,21,10,39,22.70
2014,09,21,10,40,22.80
2014,09,21,10,41,22.80
2014,09,21,10,42,22.80
2014,09,21,10,43,22.80
2014,09,21,10,44,22.70
2014,09,21,10,45,22.70
2014,09,21,10,46,22.60
2014,09,21,10,47,22.50
2014,09,21,10,48,22.50
2014,09,21,10,49,22.50
2014,09,21,10,50,22.50
2014,09,21,10,51,22.60
2014,09,21,10,52,22.60
2014,09,21,10,53,22.70
2014,09,21,10,54,22.70
2014,09,21,10,55,22.80
2014,09,21,10,56,22.80
2014,09,21,10,57,22.80
2014,09,21,10,58,22.80
2014,09,21,10,59,22.90
2014,09,21,11,00,22.90
2014,09,21,11,01,22.90
2014,09,21,11,02,22.90
2014,09,21,11,03,22.90
2014,09,21,11,04,22.90
2014,09,21,11,05,22.90
2014,09,21,11,06,23.00
2014,09,21,11,07,23.00
2014,09,21,11,08,23.10
2014,09,21,11,09,23.10
2014,09,21,11,10,23.10
2014,09,21,11,11,23.10
2014,09,21,11,12,23.10
2014,09,21,11,13,23.20
2014,09,21,11,14,23.20
2014,09,21,11,15,23.20
2014,09,21,11,16,23.30
2014,09,21,11,17,23.30
2014,09,21,11,18,23.30
2014,09,21,11,19,23.30
2014,09,21,11,20,23.30
2014,09,21,11,21,23.40
2014,09,21,11,22,23.40
2014,09,21,11,23,23.40
2014,09,21,11,24,23.50
2014,09,21,11,25,23.60
2014,09,21,11,26,23.60
2014,09,21,11,27,23.60
2014,09,21,11,28,23.70
2014,09,21,11,29,23.80
2014,09,21,11,30,23.80
2014,09,21,11,31,23.90
2014,09,21,11,32,23.90
2014,09,21,11,33,24.00
2014,09,21,11,34,24.00
2014,09,21,11,35,23.90
2014,09,21,11,36,23.80
2014,09,21,11,37,23.60
2014,09,21,11,38,23.50
2014,09,21,11,39,23.50
2014,09,21,11,40,23.40
2014,09,21,11,41,23.30
2014,09,21,11,42,23.30
2014,09,21,11,43,23.30
2014,09,21,11,44,23.30
2014,09,21,11,45,23.30
2014,09,21,11,46,23.30
2014,09,21,11,47,23.30
2014,09,21,11,48,23.30
2014,09,21,11,49,23.20
2014,09,21,11,50,23.20
2014,09,21,11,51,23.20
2014,09,21,11,52,23.10
2014,09,21,11,53,23.10
2014,09,21,11,54,23.10
2014,09,21,11,55,23.10
2014,09,21,11,56,23.20
2014,09,21,11,57,23.20
2014,09,21,11,58,23.20
2014,09,21,11,59,23.20
2014,09,21,12,00,23.30
2014,09,21,12,01,23.30
2014,09,21,12,02,23.30
2014,09,21,12,03,23.30
2014,09,21,12,04,23.30
2014,09,21,12,05,23.30
2014,09,21,12,06,23.40
2014,09,21,12,07,23.50
2014,09,21,12,08,23.50
2014,09,21,12,09,23.60
2014,09,21,12,10,23.70
2014,09,21,12,11,23.70
2014,09,21,12,12,23.70
2014,09,21,12,13,23.70
2014,09,21,12,14,23.80
2014,09,21,12,15,23.80
2014,09,21,12,16,23.80
2014,09,21,12,17,23.80
2014,09,21,12,18,23.80
2014,09,21,12,19,23.80
2014,09,21,12,20,23.70
2014,09,21,12,21,23.70
2014,09,21,12,22,23.70
2014,09,21,12,23,23.70
2014,09,21,12,24,23.80
2014,09,21,12,25,23.80
2014,09,21,12,26,23.90
2014,09,21,12,27,24.00
2014,09,21,12,28,24.10
2014,09,21,12,29,24.10
2014,09,21,12,30,24.10
2014,09,21,12,31,24.20
2014,09,21,12,32,24.20
2014,09,21,12,33,24.20
2014,09,21,12,34,24.20
2014,09,21,12,35,24.20
2014,09,21,12,36,24.20
2014,09,21,12,37,24.30
2014,09,21,12,38,24.20
2014,09,21,12,39,24.20
2014,09,21,12,40,24.20
2014,09,21,12,41,24.20
2014,09,21,12,42,24.20
2014,09,21,12,43,24.30
2014,09,21,12,44,24.40
2014,09,21,12,45,24.50
2014,09,21,12,46,24.50
2014,09,21,12,47,24.50
2014,09,21,12,48,24.40
2014,09,21,12,49,24.40
2014,09,21,12,50,24.40
2014,09,21,12,51,24.40
2014,09,21,12,52,24.40
2014,09,21,12,53,24.40
2014,09,21,12,54,24.40
2014,09,21,12,55,24.40
2014,09,21,12,56,24.40
2014,09,21,12,57,24.50
2014,09,21,12,58,24.50
2014,09,21,12,59,24.50
2014,09,21,13,00,24.60
2014,09,21,13,01,24.60
2014,09,21,13,02,24.60
2014,09,21,13,03,24.70
2014,09,21,13,04,24.70
2014,09,21,13,05,24.70
2014,09,21,13,06,24.70
2014,09,21,13,07,24.70
2014,09,21,13,08,24.70
2014,09,21,13,09,24.70
2014,09,21,13,10,24.80
2014,09,21,13,11,24.80
2014,09,21,13,12,24.90
2014,09,21,13,13,25.00
2014,09,21,13,14,25.10
2014,09,21,13,15,25.20
2014,09,21,13,16,25.20
2014,09,21,13,17,25.30
2014,09,21,13,18,25.30
2014,09,21,13,19,25.20
2014,09,21,13,20,25.20
2014,09,21,13,21,25.30
2014,09,21,13,22,25.30
2014,09,21,13,23,25.40
2014,09,21,13,24,25.40
2014,09,21,13,25,25.50
2014,09,21,13,26,25.50
2014,09,21,13,27,25.60
2014,09,21,13,28,25.60
2014,09,21,13,29,25.60
2014,09,21,13,30,25.70
2014,09,21,13,31,25.70
2014,09,21,13,32,25.70
2014,09,21,13,33,25.60
2014,09,21,13,34,25.60
2014,09,21,13,35,25.60
2014,09,21,13,36,25.50
2014,09,21,13,37,25.50
2014,09,21,13,38,25.40
2014,09,21,13,39,25.40
2014,09,21,13,40,25.40
2014,09,21,13,41,25.40
2014,09,21,13,42,25.50
2014,09,21,13,43,25.50
2014,09,21,13,44,25.50
2014,09,21,13,45,25.50
2014,09,21,13,46,25.50
2014,09,21,13,47,25.50
2014,09,21,13,48,25.40
2014,09,21,13,49,25.30
2014,09,21,13,50,25.30
2014,09,21,13,51,25.30
2014,09,21,13,52,25.30
2014,09,21,13,53,25.30
2014,09,21,13,54,25.40
2014,09,21,13,55,25.40
2014,09,21,13,56,25.40
2014,09,21,13,57,25.40
2014,09,21,13,58,25.30
2014,09,21,13,59,25.40
2014,09,21,14,00,25.40
2014,09,21,14,01,25.40
2014,09,21,14,02,25.50
2014,09,21,14,03,25.50
2014,09,21,14,04,25.60
2014,09,21,14,05,25.60
2014,09,21,14,06,25.60
2014,09,21,14,07,25.70
2014,09,21,14,08,25.80
2014,09,21,14,09,25.90
2014,09,21,14,10,26.00
2014,09,21,14,11,26.10
2014,09,21,14,12,26.10
2014,09,21,14,13,26.20
2014,09,21,14,14,26.10
2014,09,21,14,15,26.00
2014,09,21,14,16,25.90
2014,09,21,14,17,25.80
2014,09,21,14,18,25.80
2014,09,21,14,19,25.70
2014,09,21,14,20,25.80
2014,09,21,14,21,25.80
2014,09,21,14,22,25.80
2014,09,21,14,23,25.90
2014,09,21,14,24,25.90
2014,09,21,14,25,25.90
2014,09,21,14,26,25.90
2014,09,21,14,27,25.90
2014,09,21,14,28,25.90
2014,09,21,14,29,25.90
2014,09,21,14,30,26.00
2014,09,21,14,31,26.00
2014,09,21,14,32,26.10
2014,09,21,14,33,26.20
2014,09,21,14,34,26.30
2014,09,21,14,35,26.40
2014,09,21,14,36,26.40
2014,09,21,14,37,26.40
2014,09,21,14,38,26.40
2014,09,21,14,39,26.40
2014,09,21,14,40,26.30
2014,09,21,14,41,26.30
2014,09,21,14,42,26.30
2014,09,21,14,43,26.30
2014,09,21,14,44,26.30
2014,09,21,14,45,26.30
2014,09,21,14,46,26.30
2014,09,21,14,47,26.30
2014,09,21,14,48,26.30
2014,09,21,14,49,26.30
2014,09,21,14,50,26.40
2014,09,21,14,51,26.40
2014,09,21,14,52,26.40
2014,09,21,14,53,26.40
2014,09,21,14,54,26.50
2014,09,21,14,55,26.50
2014,09,21,14,56,26.40
2014,09,21,14,57,26.40
2014,09,21,14,58,26.30
2014,09,21,14,59,26.30
2014,09,21,15,00,26.30
2014,09,21,15,01,26.20
2014,09,21,15,02,26.20
2014,09,21,15,03,26.10
2014,09,21,15,04,26.10
2014,09,21,15,05,26.00
2014,09,21,15,06,25.90
2014,09,21,15,07,25.90
2014,09,21,15,08,25.90
2014,09,21,15,09,25.90
2014,09,21,15,10,25.90
2014,09,21,15,11,25.90
2014,09,21,15,12,25.90
2014,09,21,15,13,25.90
2014,09,21,15,14,25.90
2014,09,21,15,15,25.80
2014,09,21,15,16,25.80
2014,09,21,15,17,25.80
2014,09,21,15,18,25.80
2014,09,21,15,19,25.80
2014,09,21,15,20,25.80
2014,09,21,15,21,25.80
2014,09,21,15,22,25.70
2014,09,21,15,23,25.70
2014,09,21,15,24,25.70
2014,09,21,15,25,25.70
2014,09,21,15,26,25.70
2014,09,21,15,27,25.70
2014,09,21,15,28,25.70
2014,09,21,15,29,25.70
2014,09,21,15,30,25.70
2014,09,21,15,31,25.70
2014,09,21,15,32,25.60
2014,09,21,15,33,25.70
2014,09,21,15,34,25.70
2014,09,21,15,35,25.70
2014,09,21,15,36,25.60
2014,09,21,15,37,25.50
2014,09,21,15,38,25.50
2014,09,21,15,39,25.40
2014,09,21,15,40,25.40
2014,09,21,15,41,25.40
2014,09,21,15,42,25.40
2014,09,21,15,43,25.40
2014,09,21,15,44,25.50
2014,09,21,15,45,25.60
2014,09,21,15,46,25.60
2014,09,21,15,47,25.60
2014,09,21,15,48,25.50
2014,09,21,15,49,25.50
2014,09,21,15,50,25.40
2014,09,21,15,51,25.40
2014,09,21,15,52,25.40
2014,09,21,15,53,25.20
2014,09,21,15,54,25.20
2014,09,21,15,55,25.10
2014,09,21,15,56,25.10
2014,09,21,15,57,25.10
2014,09,21,15,58,25.00
2014,09,21,15,59,25.00
2014,09,21,16,00,25.00
2014,09,21,16,01,25.00
2014,09,21,16,02,25.10
2014,09,21,16,03,25.10
2014,09,21,16,04,25.10
2014,09,21,16,05,25.10
2014,09,21,16,06,25.10
2014,09,21,16,07,25.10
2014,09,21,16,08,25.10
2014,09,21,16,09,25.20
2014,09,21,16,10,25.20
2014,09,21,16,11,25.20
2014,09,21,16,12,25.20
2014,09,21,16,13,25.10
2014,09,21,16,14,25.10
2014,09,21,16,15,25.10
2014,09,21,16,16,25.10
2014,09,21,16,17,25.20
2014,09,21,16,18,25.20
2014,09,21,16,19,25.30
2014,09,21,16,20,25.30
2014,09,21,16,21,25.30
2014,09,21,16,22,25.30
2014,09,21,16,23,25.40
2014,09,21,16,24,25.40
2014,09,21,16,25,25.50
2014,09,21,16,26,25.50
2014,09,21,16,27,25.50
2014,09,21,16,28,25.40
2014,09,21,16,29,25.30
2014,09,21,16,30,25.30
2014,09,21,16,31,25.30
2014,09,21,16,32,25.30
2014,09,21,16,33,25.30
2014,09,21,16,34,25.30
2014,09,21,16,35,25.30
2014,09,21,16,36,25.30
2014,09,21,16,37,25.20
2014,09,21,16,38,25.20
2014,09,21,16,39,25.20
2014,09,21,16,40,25.20
2014,09,21,16,41,25.20
2014,09,21,16,42,25.20
2014,09,21,16,43,25.30
2014,09,21,16,44,25.40
2014,09,21,16,45,25.40
2014,09,21,16,46,25.50
2014,09,21,16,47,25.60
2014,09,21,16,48,25.70
2014,09,21,16,49,25.70
2014,09,21,16,50,25.70
2014,09,21,16,51,25.80
2014,09,21,16,52,25.80
2014,09,21,16,53,25.70
2014,09,21,16,54,25.60
2014,09,21,16,55,25.60
2014,09,21,16,56,25.50
2014,09,21,16,57,25.40
2014,09,21,16,58,25.30
2014,09,21,16,59,25.10
2014,09,21,17,00,25.00
2014,09,21,17,01,24.90
2014,09,21,17,02,24.80
2014,09,21,17,03,24.70
2014,09,21,17,04,24.60
2014,09,21,17,05,24.60
2014,09,21,17,06,24.60
2014,09,21,17,07,24.70
2014,09,21,17,08,24.70
2014,09,21,17,09,24.70
2014,09,21,17,10,24.70
2014,09,21,17,11,24.70
2014,09,21,17,12,24.80
2014,09,21,17,13,24.80
2014,09,21,17,14,24.70
2014,09,21,17,15,24.70
2014,09,21,17,16,24.70
2014,09,21,17,17,24.70
2014,09,21,17,18,24.60
2014,09,21,17,19,24.50